Location: Unspecified
(47.9110°N, 14.3980°E)
Time: 03:28:12
(UTC+00:00)

Cosmos 2278 - Pass Details

Date: 06 August 2020
Orbit: 839 x 853 km, 71.1° (Epoch: 25 September)

Event Time Altitude Azimuth Distance (km) Brightness Sun altitude
Rises 20:31:47 0° 332° (NNW) 3,433 8.5 -16.8°
Reaches altitude 10° 20:34:15 10° 332° (NNW) 2,493 7.4 -17.1°
Maximum altitude 20:40:00 89° 242° (WSW) 859 3.7 -17.7°
Enters shadow 20:42:56 30° 155° (SSE) 1,474 4.4 -18.0°
